EW3791 Weather Reports


Display with metric or nautical units.
time (UTC)temp
F
wind
direction
speed
MPH
gust
MPH
rain 1hr
in
rain 24hr
in
rain mn
in
humidity
%
barometer
mb
20260507164538 68 12 4.0 11.0 0.00 0.00 0.00 82 1015.3
20260507163113 67 1 3.0 9.0 0.00 0.00 0.00 84 1015.0
20260507161555 65 21 7.0 12.0 0.00 0.00 0.00 85 1014.8
20260507160005 64 350 5.0 10.0 0.00 0.00 0.00 85 1015.1
20260507154545 64 37 5.0 12.0 0.00 0.00 0.00 86 1015.3
20260507153012 64 31 4.0 12.0 0.00 0.00 0.00 86 1015.3
20260507151559 64 345 5.0 10.0 0.00 0.00 0.00 86 1015.3
20260507150024 64 343 4.0 11.0 0.00 0.00 0.00 86 1015.4
20260507144604 64 38 4.0 15.0 0.00 0.00 0.00 86 1014.9
20260507143031 63 28 4.0 17.0 0.00 0.00 0.00 87 1014.8
20260507141636 63 34 6.0 16.0 0.00 0.00 0.00 87 1014.8
20260507140041 64 32 7.0 15.0 0.00 0.00 0.00 87 1014.8
20260507134515 64 13 6.0 12.0 0.00 0.00 0.00 87 1015.0
20260507133049 64 298 4.0 13.0 0.00 0.00 0.00 87 1015.0
20260507131530 64 335 8.0 16.0 0.00 0.00 0.00 87 1015.1
20260507130106 65 343 7.0 13.0 0.00 0.00 0.00 87 1015.1
20260507124533 65 51 3.0 12.0 0.00 0.00 0.00 87 1014.5
20260507123004 66 318 3.0 10.0 0.00 0.00 0.00 87 1014.0
20260507121545 66 356 4.0 10.0 0.00 0.00 0.00 87 1014.1
20260507120034 66 321 3.0 8.0 0.00 0.00 0.00 88 1013.9
20260507114615 66 73 3.0 8.0 0.00 0.00 0.00 89 1013.4
20260507113038 66 35 5.0 9.0 0.00 0.00 0.00 89 1012.9
20260507111603 66 342 3.0 10.0 0.00 0.00 0.00 89 1012.9
20260507110037 66 48 3.0 10.0 0.00 0.00 0.00 89 1012.8
20260507104515 67 1 3.0 9.0 0.00 0.00 0.00 88 1012.9
20260507103056 67 38 3.0 10.0 0.00 0.00 0.00 88 1012.7
20260507101525 67 43 3.0 13.0 0.00 0.00 0.00 88 1012.5
20260507100114 67 36 3.0 14.0 0.00 0.00 0.00 88 1012.3
20260507094531 67 45 7.0 13.0 0.00 0.00 0.00 87 1012.2
20260507093112 68 25 4.0 8.0 0.00 0.00 0.00 87 1012.0
20260507091553 68 344 4.0 9.0 0.00 0.00 0.00 87 1012.0
20260507090027 68 359 6.0 11.0 0.00 0.00 0.00 86 1012.0
20260507084606 68 334 5.0 10.0 0.00 0.00 0.00 86 1012.3
20260507083038 68 329 3.0 11.0 0.00 0.00 0.00 86 1011.9
20260507081509 68 359 1.0 10.0 0.00 0.00 0.00 86 1011.9
20260507080053 68 1 3.0 9.0 0.00 0.00 0.00 85 1012.1
20260507074529 68 25 3.0 9.0 0.00 0.00 0.00 85 1012.2
20260507073137 68 23 4.0 14.0 0.00 0.00 0.00 85 1012.1
20260507071537 69 360 7.0 12.0 0.00 0.00 0.00 85 1012.4
20260507070012 69 4 7.0 13.0 0.00 0.00 0.00 84 1012.4
20260507064608 69 9 4.0 11.0 0.00 0.00 0.00 84 1012.3
20260507063027 69 33 5.0 13.0 0.00 0.00 0.00 84 1012.3
20260507061611 70 320 6.0 12.0 0.00 0.00 0.00 83 1012.2
20260507060043 70 19 5.0 12.0 0.00 0.00 0.00 84 1012.3
20260507054509 71 333 4.0 11.0 0.00 0.00 0.00 84 1011.8
20260507053049 71 11 5.0 12.0 0.00 0.00 0.00 83 1011.7
20260507051524 72 331 5.0 11.0 0.00 0.00 0.00 83 1012.0
20260507050106 72 1 5.0 12.0 0.00 0.00 0.00 83 1011.8
20260507044542 72 324 6.0 13.0 0.00 0.00 0.00 83 1011.7
20260507043010 73 354 6.0 14.0 0.00 0.00 0.00 83 1011.9
20260507041549 73 335 6.0 15.0 0.00 0.00 0.00 82 1011.9
20260507040019 74 323 7.0 13.0 0.00 0.00 0.00 82 1011.8
20260507034620 74 336 6.0 14.0 0.00 0.00 0.00 83 1011.5
20260507033025 75 316 10.0 15.0 0.00 0.00 0.00 82 1011.2
20260507031606 75 14 7.0 14.0 0.00 0.00 0.00 83 1010.9
20260507030032 76 312 8.0 14.0 0.00 0.00 0.00 84 1010.6
20260507024504 77 340 5.0 13.0 0.00 0.00 0.00 84 1010.0
20260507023047 77 319 5.0 8.0 0.00 0.00 0.00 85 1009.8
20260507021517 77 332 3.0 9.0 0.00 0.00 0.00 85 1009.5
20260507020059 78 19 4.0 14.0 0.00 0.00 0.00 84 1009.5
20260507014525 81 302 4.0 11.0 0.00 0.00 0.00 86 1009.2
20260507013116 81 156 2.0 6.0 0.00 0.00 0.00 87 1008.7
20260507011539 82 180 2.0 5.0 0.00 0.00 0.00 87 1008.4
20260507010024 82 218 1.0 5.0 0.00 0.00 0.00 86 1008.2
20260507004556 82 170 2.0 7.0 0.00 0.00 0.00 86 1007.8
20260507003024 82 143 2.0 6.0 0.00 0.00 0.00 86 1007.9
20260507001614 82 175 4.0 10.0 0.00 0.00 0.00 86 1007.8
20260507000037 83 158 3.0 8.0 0.00 0.00 0.00 85 1007.7
20260506234508 83 169 4.0 10.0 0.00 0.00 0.00 85 1007.7
20260506233059 83 144 5.0 9.0 0.00 0.00 0.00 84 1007.6
20260506231534 84 194 6.0 12.0 0.00 0.00 0.00 82 1007.5
20260506230112 85 146 4.0 9.0 0.00 0.00 0.00 81 1007.3
20260506224549 85 132 5.0 9.0 0.00 0.00 0.00 81 1007.3
20260506223014 85 170 4.0 9.0 0.00 0.00 0.00 82 1007.3
20260506221555 85 192 4.0 9.0 0.00 0.00 0.00 81 1007.2
20260506220032 85 178 3.0 10.0 0.00 0.00 0.00 81 1007.1
20260506214601 85 108 6.0 11.0 0.00 0.00 0.00 81 1007.0
20260506213028 84 225 4.0 14.0 0.00 0.00 0.00 82 1007.2
20260506211604 85 160 5.0 13.0 0.00 0.00 0.00 81 1007.4
20260506210034 85 226 5.0 10.0 0.00 0.00 0.00 80 1007.3
20260506204509 85 165 3.0 11.0 0.00 0.00 0.00 82 1007.5
20260506203054 84 153 5.0 12.0 0.00 0.00 0.00 82 1007.6
20260506201519 84 132 4.0 9.0 0.00 0.00 0.00 82 1007.8
20260506200107 85 166 4.0 11.0 0.00 0.00 0.00 81 1007.9
20260506194537 83 153 5.0 13.0 0.00 0.00 0.00 83 1007.9
20260506193113 85 176 6.0 14.0 0.00 0.00 0.00 81 1008.1
20260506191539 85 137 4.0 11.0 0.00 0.00 0.00 80 1008.2
20260506190007 85 82 4.0 9.0 0.00 0.00 0.00 80 1008.4
20260506184550 84 176 4.0 9.0 0.00 0.00 0.00 80 1008.6
20260506183021 84 128 2.0 8.0 0.00 0.00 0.00 81 1008.8
20260506181627 83 193 4.0 8.0 0.00 0.00 0.00 82 1009.0
20260506180033 83 200 2.0 8.0 0.00 0.00 0.00 83 1009.4
20260506174503 83 159 5.0 10.0 0.00 0.00 0.00 83 1009.6
20260506173120 82 144 3.0 8.0 0.00 0.00 0.00 85 1009.8
20260506171523 81 167 7.0 11.0 0.00 0.00 0.00 86 1009.8
20260506170109 80 150 2.0 9.0 0.00 0.00 0.00 88 1010.0